[Iaude] MPEC D17: 2018 CK14 [a=2.25,e=0.47,i=21.0,H=19.3]

mpec at mpcdb1.cfa.harvard.edu mpec at mpcdb1.cfa.harvard.edu
Fri Feb 16 15:49:16 EST 2018


M.P.E.C. 2018-D17                                Issued 2018 Feb. 16, 20:44 UT
 
     The Minor Planet Electronic Circulars contain information on unusual
         minor planets and routine data on comets.  They are published
    on behalf of Division F of the International Astronomical Union by the
          Minor Planet Center, Smithsonian Astrophysical Observatory,
                          Cambridge, MA 02138, U.S.A.

             Prepared using the Tamkin Foundation Computer Network

                              MPC at CFA.HARVARD.EDU
            URL https://www.minorplanetcenter.net/    ISSN 1523-6714


                                   2018 CK14
 
Observations:
     K18C14K  C2018 01 14.61803 12 32 17.877+02 18 07.76         21.1 wUED017F51
     K18C14K  C2018 01 14.63000 12 32 20.196+02 18 14.15         21.1 wUED017F51
     K18C14K  C2018 01 14.64189 12 32 22.501+02 18 20.51         21.4 wUED017F51
     K18C14K* C2018 02 12.57841 14 24 10.395+10 38 45.59         20.4 wUED017F51
     K18C14K  C2018 02 12.59050 14 24 13.508+10 39 04.08         20.4 wUED017F51
     K18C14K  C2018 02 12.60257 14 24 16.613+10 39 22.44         20.4 wUED017F51
     K18C14K _C2018 02 13.60048114 28 40.576+11 04 52.53         19.9 GUED017568
     K18C14K _C2018 02 13.60142614 28 40.821+11 04 53.99         20.3 GUED017568
     K18C14K _C2018 02 13.60237714 28 41.068+11 04 55.44         20.3 GUED017568
     K18C14K KC2018 02 14.02462 14 30 33.60 +11 15 40.8                UED017J95
     K18C14K KC2018 02 14.03080 14 30 35.27 +11 15 50.5                UED017J95
     K18C14K KC2018 02 14.04018 14 30 37.77 +11 16 05.3          20.2 GUED017J95
     K18C14K KC2018 02 14.34109 14 31 57.91 +11 23 57.7          19.6 RqED017H36
     K18C14K KC2018 02 14.34699 14 31 59.42 +11 24 08.2          20.0 RqED017H36
     K18C14K KC2018 02 16.11650 14 39 52.68 +12 10 43.8          20.1 VSED017L01
     K18C14K KC2018 02 16.11822 14 39 53.17 +12 10 45.2          20.2 VSED017L01
     K18C14K KC2018 02 16.16802 14 40 06.27 +12 12 05.5          20.0 VSED017L01
     K18C14K KC2018 02 16.16889 14 40 06.52 +12 12 07.4          20.0 VSED017L01
 
Observer details:
568 Mauna Kea.  Observers R. J. Wainscoat, L. Wells.  Measurers M. Micheli,
    R. Weryk.  3.6-m Canada-France-Hawaii Telescope + CCD.
F51 Pan-STARRS 1, Haleakala.  Observers J. Bulger, T. Lowe, A. Schultz,
    M. Willman.  Measurers K. Chambers, S. Chastel, L. Denneau, H. Flewelling,
    M. Huber, E. Lilly, E. Magnier, R. Wainscoat, C. Waters, R. Weryk.  1.8-m
    Ritchey-Chretien + CCD.
H36 Sandlot Observatory, Scranton.  Observer G. Hug.  0.56-m reflector + CCD.
J95 Great Shefford.  Observer P. Birtwhistle.  0.40-m f/6.0 Schmidt-Cassegrain
    + CCD.
L01 Visnjan Observatory, Tican.  Observer K. Korlevic.  1.0-m f/2.9 reflector
    + CCD.
 
Orbital elements:
2018 CK14                                                Earth MOID = 0.3606 AU
Epoch 2018 Mar. 23.0 TT = JDT 2458200.5                 MPC
M 357.34841              (2000.0)            P               Q
n   0.29270550     Peri.   69.41721     -0.84594081     +0.47649584
a   2.2465468      Node   138.02855     -0.51387126     -0.84838909
e   0.4662457      Incl.   20.98044     +0.14254987     -0.23062450
P   3.37           H   19.3           G   0.15           U   6
Residuals in seconds of arc
180114 F51  0.0   0.0     180213 568  0.0   0.0     180214 H36  0.7+  0.2+
180114 F51  0.0   0.0     180213 568  0.0   0.0     180214 H36  0.1+  1.5+
180114 F51  0.0   0.0     180213 568  0.0   0.0     180216 L01  0.3-  0.5+
180212 F51  0.0   0.0     180214 J95  0.4-  0.1-    180216 L01  0.2+  0.8-
180212 F51  0.1-  0.0     180214 J95  0.1+  0.1-    180216 L01  0.5-  0.3-
180212 F51  0.1-  0.0     180214 J95  0.5+  0.0     180216 L01  0.2-  0.2+

Ephemeris:
2018 CK14                a,e,i = 2.25, 0.47, 21                  q = 1.1991
Date    TT    R. A. (2000) Decl.     Delta      r     Elong.  Phase     V
2018 01 17    12 40 15.6 +02 40 50   0.7657  1.4234   108.3    41.0    21.1
...
2018 02 01    13 35 30.3 +06 19 26   0.6310  1.3494   111.3    42.9    20.6
...
2018 02 09    14 08 37.7 +09 11 03   0.5769  1.3143   111.7    44.2    20.4
...
2018 02 15    14 34 52.9 +11 41 18   0.5452  1.2904   111.4    45.5    20.3
2018 02 16    14 39 20.9 +12 07 45   0.5407  1.2866   111.2    45.7    20.3
2018 02 17    14 43 50.2 +12 34 30   0.5364  1.2829   111.1    45.9    20.2
...
2018 02 23    15 11 05.5 +15 19 44   0.5150  1.2621   110.0    47.4    20.2
...
2018 03 03    15 47 36.7 +19 01 44   0.4977  1.2385   107.9    49.6    20.1
...
2018 03 18    16 52 09.1 +25 08 45   0.4926  1.2085   103.4    53.2    20.1

A. U. Tomatic                (C) Copyright 2018 MPC           M.P.E.C. 2018-D17



More information about the Iaude mailing list